Terug naar catalogus

STARLINK-37117

ActiefCommunicatieSSO
NORAD 68212·PAYLOAD·🇺🇸 United States

Gelanceerd Mar 17, 2026 vanaf Vandenberg Space Force Base

Loading…

Volgende Passages (komende 24 uur)

TLE

VersSource: CelesTrak SupGP

Epoch: Sep 14, 2026, 23:24 UTC

1 68212C 26053F   26257.97548611  .00074251  00000+0  23058-2 0  2573
2 68212  97.2846 131.7833 0002269  92.9820 267.5083 15.33387995    17

Volg STARLINK-37117 in realtime met AllMySat

Download on the App Store